Simultaneous Nadir Overpasses (SNOs) Predictions

Prediction of SNOs between NPP and TERRA Satellite Orbit:

Table of predicted SNOs for the next 14.0 days since TLE Epoch: 7/16/2016
Index Date (NPP) Time (NPP) Lat,Lon (NPP) SZA (NPP ) Date (TERRA) Time (TERRA) Lat,Lon (TERRA) SZA (TERRA ) Distance(km) Time Diff (sec)
1 07/18/2016 18:23:24 69.18, -98.05 48.29 07/18/2016 18:24:33 69.07, -96.47 48.13 63.86 69
2 07/18/2016 19:13:53 -68.40, 70.32 132.53 07/18/2016 19:14:13 -68.42, 70.34 132.51 2.53 20
3 07/18/2016 20:04:37 68.28,-122.22 47.36 07/18/2016 20:03:40 68.30,-122.16 47.38 3.13 57
4 07/21/2016 10:40:05 68.49, 18.66 48.07 07/21/2016 10:41:12 68.48, 18.67 48.06 0.36 67
5 07/21/2016 11:30:46 -68.34,-173.82 132.08 07/21/2016 11:30:43 -68.33,-173.88 132.08 2.41 3
6 07/21/2016 12:21:25 67.95, -6.03 47.54 07/21/2016 12:20:13 68.04, -6.58 47.64 24.84 72
7 07/24/2016 02:56:58 68.43, 134.51 48.57 07/24/2016 02:57:41 68.45, 134.51 48.57 1.47 43
8 07/24/2016 03:47:39 -68.28, -57.98 131.59 07/24/2016 03:47:12 -68.30, -58.04 131.57 3.26 27
9 07/26/2016 18:23:23 -69.34, 81.74 129.92 07/26/2016 18:24:31 -69.20, 83.69 130.11 78.37 68
10 07/26/2016 19:13:51 68.38,-109.65 49.10 07/26/2016 19:14:10 68.41,-109.66 49.12 2.59 19
11 07/26/2016 20:04:33 -68.28, 57.80 131.00 07/26/2016 20:03:41 -68.26, 57.80 131.02 2.20 52
12 07/29/2016 10:40:00 -68.49,-161.33 130.18 07/29/2016 10:41:11 -68.49,-161.32 130.18 0.66 71
13 07/29/2016 11:30:43 68.34, 6.18
